Location: McCall
(45.0000°N, 116.0000°W)
Time: 22:42:52
(UTC-06:00)

Saudisat 1A - Visible Passes

Search period start: 31 October 2014 00:00
Search period end: 09 November 2014 23:00
Orbit: 597 x 608 km, 64.6° (Epoch: 31 October)

Date Brightness Start Highest point End Pass type
(mag) Time Alt. Az. Time Alt. Az. Time Alt. Az.
31 Oct 10.1 06:22:05 10° S 06:25:48 27° ESE 06:29:32 10° ENE visible
01 Nov 8.9 06:33:27 10° SSW 06:37:41 50° ESE 06:41:58 10° NE visible
02 Nov 11.0 04:09:41 10° ESE 04:10:50 11° ESE 04:11:58 10° E visible
02 Nov 7.9 05:46:10 16° SW 05:49:41 89° NW 05:54:07 10° NE visible
03 Nov 10.3 04:22:22 20° ESE 04:22:33 20° ESE 04:25:48 10° ENE visible
03 Nov 8.2 05:59:13 22° WSW 06:01:47 51° NW 06:06:06 10° NNE visible
04 Nov 9.6 04:35:08 34° E 04:35:08 34° E 04:38:25 10° NE visible
04 Nov 8.9 06:11:58 21° W 06:13:59 31° NW 06:17:56 10° NNE visible
05 Nov 9.1 04:47:40 42° NE 04:47:40 42° NE 04:50:41 10° NE visible
05 Nov 9.4 06:24:30 16° WNW 06:26:17 21° NW 06:29:38 10° NNE visible
06 Nov 9.2 05:00:01 36° NNE 05:00:01 36° NNE 05:02:44 10° NNE visible
06 Nov 9.9 06:36:51 12° WNW 06:38:42 14° NNW 06:41:07 10° N visible
07 Nov 9.5 05:12:15 27° N 05:12:15 27° N 05:14:37 10° NNE visible
07 Nov 10.2 06:50:41 10° NNW 06:51:13 10° NNW 06:51:45 10° NNW visible
08 Nov 9.8 05:24:21 20° N 05:24:21 20° N 05:26:22 10° NNE visible
09 Nov 10.1 05:36:23 15° NNW 05:36:23 15° NNW 05:37:57 10° N visible
